Location: Blackfoot
(53.5367°N, 112.7800°W)
Time: 21:44:17
(UTC-06:00)

Amateur Radio Satellites - All Passes

Search period start: 25 June 2017 21:14
Search period end: 26 June 2017 21:14
Location: Blackfoot, 53.5367°N, 112.7800°W

Satellite Date Start Highest point End Downlink Frequencies (MHz)
Time Altitude Azimuth
FO-29 25 Jun 21:14:22 21:17:35 13° 75° (ENE) 21:20:48 435.910
CUBEBUG 2 25 Jun 21:15:37 21:19:46 32° 266° (W) 21:24:02 437.445
RS-15 25 Jun 21:17:41 21:28:35 41° 109° (ESE) 21:39:34 29.354- 29.394
STARS 25 Jun 21:20:46 21:22:20 12° 311° (NW) 21:23:53 437.465
DELFI C3 25 Jun 21:24:41 21:28:14 34° 66° (ENE) 21:31:48 145.870
YUBILEINY 25 Jun 21:27:27 21:34:19 27° 76° (ENE) 21:41:11 435.215
PCSat 25 Jun 21:31:15 21:36:43 80° 233° (SW) 21:42:09 145.827
Oscar 11 25 Jun 21:34:40 21:38:59 63° 258° (WSW) 21:43:19 .
AAUSAT CUBESAT 2 25 Jun 21:35:32 21:39:04 27° 266° (W) 21:42:38 437.432
ZACube-1 25 Jun 21:42:57 21:47:18 42° 263° (W) 21:51:41 437.345
UWE-3 25 Jun 21:49:21 21:53:10 25° 269° (W) 21:57:03 435.000/436.395/437.385
BEESAT 2 25 Jun 21:52:46 21:54:36 13° 112° (ESE) 21:56:27 435.950
HO-68 25 Jun 21:57:02 22:01:32 17° 277° (W) 22:06:04 435.675
O/OREOS (USA 219) 25 Jun 21:58:58 22:02:37 24° 105° (ESE) 22:06:16 437.305
SO-50 25 Jun 22:07:27 22:11:49 45° 34° (NE) 22:16:11 436.795
STRAND 1 25 Jun 22:14:46 22:19:34 40° 297° (WNW) 22:24:22 437.568
EO-88 25 Jun 22:19:36 22:23:17 83° 74° (ENE) 22:26:59 145.990 - 145.960
ESTCUBE 1 25 Jun 22:21:37 22:24:24 16° 54° (NE) 22:27:12 437.505/2401.250
NO-84 25 Jun 22:23:02 22:25:32 16° 131° (SE) 22:28:07 435.350 FM
BEESAT 3 25 Jun 22:28:08 22:32:03 56° 128° (SE) 22:36:01 437.485
UNISAT 6 25 Jun 22:30:33 22:33:52 19° 88° (E) 22:37:07 437.425
AO-85 25 Jun 22:37:58 22:41:58 83° 315° (NW) 22:45:55 145.980
LO-87 25 Jun 22:42:04 22:45:02 25° 64° (ENE) 22:48:03 145.935 - 145.965
AO-73 25 Jun 22:46:19 22:48:50 15° 274° (W) 22:51:24 145.935
M-CUBED/EXP-1 PRIME 25 Jun 22:52:01 22:55:06 25° 102° (ESE) 22:58:23 437.505
FO-29 25 Jun 22:56:54 23:04:26 51° 97° (E) 23:12:01 435.910
DELFI C3 25 Jun 22:59:36 23:03:03 29° 265° (W) 23:06:31 145.870
PRISM 25 Jun 23:11:05 23:14:53 35° 97° (E) 23:18:42 437.425
PCSat 25 Jun 23:15:51 23:19:19 17° 254° (WSW) 23:22:46 145.827
YUBILEINY 25 Jun 23:21:10 23:30:01 90° 252° (WSW) 23:38:56 435.215
TIGRISAT 25 Jun 23:24:10 23:28:43 48° 99° (E) 23:33:11 435.000
BEESAT 2 25 Jun 23:27:39 23:31:40 76° 130° (SE) 23:35:45 435.950
RS-15 25 Jun 23:27:44 23:40:07 85° 316° (NW) 23:52:33 29.354- 29.394
O/OREOS (USA 219) 25 Jun 23:37:15 23:41:43 56° 305° (NW) 23:46:12 437.305
SO-50 25 Jun 23:48:02 23:52:19 43° 235° (SW) 23:56:37 436.795
ESTCUBE 1 25 Jun 23:56:06 00:00:37 88° 74° (ENE) 00:05:08 437.505/2401.250
EO-88 25 Jun 23:56:17 23:57:30 11° 273° (W) 23:58:44 145.990 - 145.960
VELOX 1 25 Jun 23:56:50 00:00:39 30° 62° (ENE) 00:04:29 145.980
STRAND 1 25 Jun 23:57:10 23:57:29 10° 318° (NW) 23:57:49 437.568
NO-84 25 Jun 23:58:23 00:02:24 56° 152° (SSE) 00:06:38 435.350 FM
50 SAT 26 Jun 00:01:00 00:02:42 13° 58° (ENE) 00:04:24 437.505
BEESAT 3 26 Jun 00:06:10 00:09:52 33° 330° (NNW) 00:13:34 437.485
UNISAT 6 26 Jun 00:06:23 00:11:06 72° 288° (WNW) 00:15:42 437.425
NANOSAT C BR1 26 Jun 00:13:33 00:15:28 13° 86° (E) 00:17:23 145.865
SPROUT 26 Jun 00:14:47 00:18:49 42° 67° (ENE) 00:22:55 437.525
LO-87 26 Jun 00:15:07 00:18:23 34° 263° (W) 00:21:42 145.935 - 145.965
DX 1 26 Jun 00:16:05 00:19:11 20° 57° (ENE) 00:22:19 434.975-435.025
AO-85 26 Jun 00:19:40 00:22:53 23° 338° (NNW) 00:26:08 145.980
M-CUBED/EXP-1 PRIME 26 Jun 00:26:19 00:29:39 38° 299° (WNW) 00:33:13 437.505
UKube-1 26 Jun 00:32:26 00:35:32 20° 57° (ENE) 00:38:39 .
FO-29 26 Jun 00:42:05 00:49:28 52° 298° (WNW) 00:56:59 435.910
PRISM 26 Jun 00:46:31 00:50:07 31° 297° (WNW) 00:53:45 437.425
POLYITAN 1 26 Jun 00:50:19 00:54:06 29° 94° (E) 00:57:50 437.675
QB50P2 26 Jun 01:01:01 01:05:04 39° 97° (E) 01:09:05 145.880/145.840
TIGRISAT 26 Jun 01:01:11 01:05:13 29° 299° (WNW) 01:09:12 435.000
AIST 2D 26 Jun 01:05:45 01:09:18 83° 104° (ESE) 01:12:48 435.315
BEESAT 2 26 Jun 01:06:18 01:09:49 28° 333° (NNW) 01:13:24 435.950
BUGSAT 1 26 Jun 01:12:52 01:15:20 15° 88° (E) 01:17:48 437.445
O/OREOS (USA 219) 26 Jun 01:19:27 01:22:08 15° 328° (NNW) 01:24:49 437.305
YUBILEINY 26 Jun 01:20:42 01:28:09 29° 306° (NW) 01:35:40 435.215
EO-79 26 Jun 01:25:18 01:29:34 60° 102° (ESE) 01:33:47 145.935-145.965
50 SAT 26 Jun 01:31:41 01:35:03 70° 257° (WSW) 01:38:26 437.505
VELOX 1 26 Jun 01:32:50 01:36:59 41° 262° (W) 01:41:11 145.980
Oscar 19 26 Jun 01:33:55 01:35:45 12° 83° (E) 01:37:36 437.125/150
ESTCUBE 1 26 Jun 01:35:38 01:38:04 14° 273° (W) 01:40:32 437.505/2401.250
NO-84 26 Jun 01:35:45 01:40:00 75° 352° (N) 01:44:24 435.350 FM
DUCHIFAT 1 26 Jun 01:38:47 01:43:03 67° 103° (ESE) 01:47:16 145.980
RS-15 26 Jun 01:42:15 01:54:17 53° 346° (NNW) 02:06:12 29.354- 29.394
UNISAT 6 26 Jun 01:44:29 01:47:01 15° 308° (NW) 01:49:31 437.425
BEESAT 3 26 Jun 01:45:46 01:48:31 17° 352° (N) 01:51:16 437.485
NANOSAT C BR1 26 Jun 01:47:33 01:51:51 88° 105° (ESE) 01:56:08 145.865
DX 1 26 Jun 01:50:38 01:54:58 70° 257° (WSW) 01:59:18 434.975-435.025
SPROUT 26 Jun 01:51:14 01:54:53 27° 266° (W) 01:58:35 437.525
ITUPSAT 1 26 Jun 01:58:50 02:02:13 19° 54° (NE) 02:05:36 437.325
AO-85 26 Jun 02:01:58 02:04:33 16° 2° (N) 02:07:10 145.980
UKube-1 26 Jun 02:06:51 02:11:09 69° 257° (WSW) 02:15:28 .
BEESAT 26 Jun 02:08:07 02:11:48 22° 56° (NE) 02:15:29 436.000
POLYITAN 1 26 Jun 02:25:58 02:29:59 40° 294° (WNW) 02:33:59 437.675
FO-29 26 Jun 02:28:08 02:32:57 19° 319° (NW) 02:37:54 435.910
Gurwin Techsat 1B 26 Jun 02:29:14 02:33:26 23° 90° (E) 02:37:36 435.225
QB50P2 26 Jun 02:37:00 02:40:47 31° 297° (WNW) 02:44:32 145.880/145.840
AIST 2D 26 Jun 02:40:29 02:41:58 12° 303° (WNW) 02:43:26 435.315
BEESAT 2 26 Jun 02:46:03 02:48:46 17° 357° (N) 02:51:30 435.950
BUGSAT 1 26 Jun 02:46:58 02:51:16 80° 287° (WNW) 02:55:30 437.445
EO-79 26 Jun 03:01:42 03:04:59 22° 301° (WNW) 03:08:14 145.935-145.965
MOZHAYETS 4 26 Jun 03:10:58 03:15:20 42° 66° (ENE) 03:19:43
Oscar 19 26 Jun 03:10:58 03:16:06 67° 103° (ESE) 03:21:12 437.125/150
NO-84 26 Jun 03:13:28 03:17:50 84° 15° (NNE) 03:22:14 435.350 FM
DUCHIFAT 1 26 Jun 03:15:13 03:18:18 20° 302° (WNW) 03:21:23 145.980
BEESAT 3 26 Jun 03:24:22 03:27:26 20° 16° (NNE) 03:30:28 437.485
NANOSAT C BR1 26 Jun 03:24:23 03:27:00 16° 305° (NW) 03:29:35 145.865
YUBILEINY 26 Jun 03:27:08 03:29:01 11° 337° (NNW) 03:30:55 435.215
DX 1 26 Jun 03:31:35 03:31:59 10° 276° (W) 03:32:24 434.975-435.025
ITUPSAT 1 26 Jun 03:34:39 03:39:29 86° 256° (WSW) 03:44:20 437.325
AO-85 26 Jun 03:42:40 03:46:07 27° 27° (NNE) 03:49:41 145.980
BEESAT 26 Jun 03:44:22 03:49:09 71° 257° (WSW) 03:53:58 436.000
ITAMSAT 1 26 Jun 03:50:24 03:53:51 17° 87° (E) 03:57:17 435.822/435.867
CUBESAT XI-V 26 Jun 03:53:56 03:57:47 27° 61° (ENE) 04:01:38 437.345
RS-15 26 Jun 03:57:24 04:09:33 55° 19° (NNE) 04:21:17 29.354- 29.394
Gurwin Techsat 1B 26 Jun 04:08:35 04:13:54 70° 291° (WNW) 04:19:12 435.225
AO-7 26 Jun 04:10:48 04:18:02 31° 92° (E) 04:25:11 .
BUGSAT 1 26 Jun 04:23:42 04:25:57 14° 307° (NW) 04:28:11 437.445
BEESAT 2 26 Jun 04:24:33 04:27:49 22° 20° (NNE) 04:31:06 435.950
KKS-1 26 Jun 04:40:42 04:44:57 47° 67° (ENE) 04:49:15 437.445
MOZHAYETS 4 26 Jun 04:48:29 04:52:37 31° 266° (W) 04:56:46
Oscar 19 26 Jun 04:50:54 04:55:03 25° 303° (WNW) 04:59:11 437.125/150
NO-84 26 Jun 04:51:09 04:55:18 42° 214° (SSW) 04:59:25 435.350 FM
BEESAT 3 26 Jun 05:01:51 05:05:50 52° 38° (NE) 05:09:45 437.485
STARS 26 Jun 05:08:55 05:13:02 41° 65° (ENE) 05:17:12 437.465
ITUPSAT 1 26 Jun 05:15:24 05:18:03 15° 274° (W) 05:20:43 437.325
AO-85 26 Jun 05:22:52 05:26:54 78° 228° (SW) 05:31:09 145.980
BEESAT 26 Jun 05:26:05 05:27:49 12° 276° (W) 05:29:34 436.000
ITAMSAT 1 26 Jun 05:28:46 05:34:04 89° 286° (WNW) 05:39:19 435.822/435.867
CUBESAT XI-V 26 Jun 05:30:23 05:34:55 52° 260° (W) 05:39:28 437.345
Gurwin Techsat 1B 26 Jun 05:49:45 05:53:01 17° 311° (NW) 05:56:16 435.225
BEESAT 2 26 Jun 06:02:10 06:06:15 68° 43° (NE) 06:10:18 435.950
AO-7 26 Jun 06:03:15 06:11:42 82° 295° (WNW) 06:20:05 .
RS-15 26 Jun 06:10:56 06:23:17 85° 229° (SW) 06:35:02 29.354- 29.394
KKS-1 26 Jun 06:17:59 06:21:43 26° 266° (W) 06:25:30 437.445
STRAND 1 26 Jun 06:20:18 06:24:09 22° 54° (NE) 06:28:00 437.568
O/OREOS (USA 219) 26 Jun 06:22:34 06:26:27 27° 44° (NE) 06:30:17 437.305
DOVE 4 26 Jun 06:30:05 06:34:21 30° 94° (E) 06:38:47 437.250
NO-84 26 Jun 06:30:35 06:32:00 11° 233° (SW) 06:33:25 435.350 FM
CUTE-I 26 Jun 06:37:34 06:40:59 17° 86° (E) 06:44:23 437.470
BEESAT 3 26 Jun 06:39:44 06:43:15 29° 239° (WSW) 06:46:43 437.485
STARS 26 Jun 06:45:39 06:49:30 30° 265° (W) 06:53:24 437.465
AO-85 26 Jun 07:04:40 07:06:41 13° 247° (WSW) 07:08:47 145.980
NUDT-PHONESAT 26 Jun 07:04:51 07:07:37 19° 91° (E) 07:10:22 437.300
ITAMSAT 1 26 Jun 07:09:09 07:12:53 20° 308° (NW) 07:16:38 435.822/435.867
XW-2F 26 Jun 07:22:04 07:25:34 34° 97° (E) 07:29:00 145.980 - 146.000
XW-2D 26 Jun 07:26:29 07:30:06 41° 98° (E) 07:33:40 145.860 - 145.880
YUBILEINY 26 Jun 07:26:57 07:33:26 22° 46° (NE) 07:39:52 435.215
HO-68 26 Jun 07:27:00 07:31:36 18° 84° (E) 07:36:11 435.675
FO-29 26 Jun 07:35:08 07:38:39 15° 35° (NE) 07:42:19 435.910
XW-2B 26 Jun 07:35:28 07:39:09 49° 99° (E) 07:42:49 145.730 - 145.750
LilacSat-2 26 Jun 07:35:34 07:39:18 52° 100° (E) 07:43:00 437.200
BEESAT 2 26 Jun 07:40:30 07:43:39 22° 243° (WSW) 07:46:46 435.950
XW-2C 26 Jun 07:50:57 07:54:45 73° 103° (ESE) 07:58:30 145.795 - 145.815
AO-7 26 Jun 07:56:35 08:03:28 30° 318° (NW) 08:10:22 .
STRAND 1 26 Jun 07:57:37 08:02:47 82° 254° (WSW) 08:07:59 437.568
O/OREOS (USA 219) 26 Jun 08:01:46 08:06:11 58° 246° (WSW) 08:10:34 437.305
KAITUO 1B 26 Jun 08:03:21 08:07:06 79° 105° (ESE) 08:10:48 145.475/437.950
DOVE 4 26 Jun 08:07:35 08:12:13 49° 292° (WNW) 08:17:05 437.250
M-CUBED/EXP-1 PRIME 26 Jun 08:11:45 08:13:16 13° 49° (NE) 08:14:46 437.505
CUTE-I 26 Jun 08:16:25 08:21:51 86° 106° (ESE) 08:27:15 437.470
SEEDS 26 Jun 08:22:06 08:25:17 21° 91° (E) 08:28:27 437.485
RS-15 26 Jun 08:24:09 08:34:11 32° 256° (WSW) 08:43:51 29.354- 29.394
PRISM 26 Jun 08:34:40 08:35:33 11° 50° (NE) 08:36:27 437.425
NUDT-PHONESAT 26 Jun 08:38:11 08:41:46 45° 290° (WNW) 08:45:18 437.300
CUTE 1.7 + AOD 2 26 Jun 08:40:29 08:44:31 44° 98° (E) 08:48:32 437.475
AO-73 26 Jun 08:50:44 08:52:38 12° 84° (E) 08:54:30 145.935
TIGRISAT 26 Jun 08:54:06 08:57:04 17° 54° (NE) 09:00:03 435.000
XW-2F 26 Jun 08:56:24 08:59:37 27° 296° (WNW) 09:02:47 145.980 - 146.000
CUBEBUG 2 26 Jun 08:59:19 09:03:49 40° 96° (E) 09:08:11 437.445
XW-2D 26 Jun 09:01:03 09:04:06 23° 297° (WNW) 09:07:08 145.860 - 145.880
XW-2B 26 Jun 09:10:14 09:13:05 20° 299° (WNW) 09:15:54 145.730 - 145.750
AAUSAT CUBESAT 2 26 Jun 09:10:29 09:14:08 30° 95° (E) 09:17:46 437.432
LilacSat-2 26 Jun 09:10:30 09:13:16 20° 300° (WNW) 09:16:02 437.200
HO-68 26 Jun 09:13:26 09:20:40 72° 106° (ESE) 09:27:49 435.675
FO-29 26 Jun 09:15:51 09:21:51 43° 59° (ENE) 09:28:35 435.910
XW-2A 26 Jun 09:15:57 09:19:23 77° 103° (ESE) 09:22:47 145.665 - 145.685
Oscar 11 26 Jun 09:16:18 09:19:03 16° 88° (E) 09:21:46 .
YUBILEINY 26 Jun 09:23:27 09:32:19 66° 73° (ENE) 09:41:04 435.215
ZACube-1 26 Jun 09:24:52 09:28:43 27° 92° (E) 09:32:27 437.345
XW-2C 26 Jun 09:26:14 09:28:28 15° 302° (WNW) 09:30:42 145.795 - 145.815
UWE-3 26 Jun 09:31:23 09:35:55 49° 99° (E) 09:40:17 435.000/436.395/437.385
UNISAT 6 26 Jun 09:34:51 09:39:02 34° 63° (ENE) 09:43:18 437.425
KAITUO 1B 26 Jun 09:38:36 09:40:36 14° 303° (WNW) 09:42:36 145.475/437.950
STRAND 1 26 Jun 09:39:54 09:42:48 15° 275° (W) 09:45:44 437.568
M-CUBED/EXP-1 PRIME 26 Jun 09:44:00 09:47:17 79° 250° (WSW) 09:50:34 437.505
DOVE 4 26 Jun 09:47:45 09:48:56 11° 312° (NW) 09:50:08 437.250
AO-7 26 Jun 09:49:40 09:53:41 15° 344° (NNW) 09:57:43 .
SEEDS 26 Jun 09:57:12 10:01:17 53° 290° (WNW) 10:05:20 437.485
CUTE-I 26 Jun 09:57:17 10:01:18 22° 307° (NW) 10:05:19 437.470
PRISM 26 Jun 10:06:02 10:10:02 60° 70° (ENE) 10:14:03 437.425
Tancredo 1 26 Jun 10:08:26 10:11:12 32° 158° (SSE) 10:13:58 437.200
AIST 2D 26 Jun 10:15:42 10:16:38 11° 55° (NE) 10:17:34 435.315
CUTE 1.7 + AOD 2 26 Jun 10:16:39 10:20:12 26° 298° (WNW) 10:23:43 437.475
AO-73 26 Jun 10:25:07 10:29:39 82° 103° (ESE) 10:34:02 145.935
QB50P2 26 Jun 10:26:49 10:28:28 12° 51° (NE) 10:30:10 145.880/145.840
TIGRISAT 26 Jun 10:28:26 10:33:05 85° 74° (ENE) 10:37:50 435.000
DELFI C3 26 Jun 10:29:51 10:33:02 23° 93° (E) 10:36:12 145.870
CUBEBUG 2 26 Jun 10:36:04 10:40:22 34° 296° (WNW) 10:44:34 437.445
ISS 26 Jun 10:37:14 10:40:14 33° 157° (SSE) 10:43:15 437.550
AAUSAT CUBESAT 2 26 Jun 10:45:52 10:49:39 36° 294° (WNW) 10:53:25 437.432
EO-79 26 Jun 10:49:42 10:52:26 17° 56° (NE) 10:55:11 145.935-145.965
XW-2A 26 Jun 10:50:05 10:51:38 13° 303° (WNW) 10:53:11 145.665 - 145.685
Oscar 11 26 Jun 10:51:23 10:55:42 74° 287° (WNW) 10:59:59 .
FO-29 26 Jun 11:00:39 11:06:48 52° 263° (W) 11:13:48 435.910
ZACube-1 26 Jun 11:00:52 11:05:12 46° 293° (WNW) 11:09:25 437.345
HO-68 26 Jun 11:01:39 11:07:57 35° 307° (NW) 11:14:15 435.675
DUCHIFAT 1 26 Jun 11:02:25 11:05:18 18° 57° (ENE) 11:08:12 145.980
UWE-3 26 Jun 11:08:13 11:12:09 28° 299° (WNW) 11:16:01 435.000/436.395/437.385
NANOSAT C BR1 26 Jun 11:10:54 11:14:13 22° 59° (ENE) 11:17:34 145.865
UNISAT 6 26 Jun 11:11:19 11:15:41 40° 263° (W) 11:20:09 437.425
EO-88 26 Jun 11:15:42 11:19:14 43° 99° (E) 11:22:43 145.990 - 145.960
YUBILEINY 26 Jun 11:20:48 11:28:41 38° 277° (W) 11:36:31 435.215
LO-87 26 Jun 11:36:30 11:38:23 13° 88° (E) 11:40:15 145.935 - 145.965
AO-7 26 Jun 11:39:27 11:43:08 14° 12° (NNE) 11:46:48 .
PRISM 26 Jun 11:42:54 11:45:42 18° 270° (W) 11:48:31 437.425
Tancredo 1 26 Jun 11:43:31 11:46:31 60° 178° (S) 11:49:32 437.200
ESTCUBE 1 26 Jun 11:43:47 11:45:39 12° 85° (E) 11:47:31 437.505/2401.250
AIST 2D 26 Jun 11:45:40 11:49:14 81° 75° (ENE) 11:52:48 435.315
POLYITAN 1 26 Jun 11:48:28 11:52:36 49° 68° (ENE) 11:56:46 437.675
QB50P2 26 Jun 11:59:15 12:03:28 65° 72° (ENE) 12:07:45 145.880/145.840
AO-73 26 Jun 12:02:19 12:05:19 18° 304° (NW) 12:08:16 145.935
DELFI C3 26 Jun 12:04:15 12:08:00 43° 292° (WNW) 12:11:45 145.870
TIGRISAT 26 Jun 12:07:35 12:10:26 16° 274° (W) 12:13:18 435.000
BUGSAT 1 26 Jun 12:08:05 12:11:28 24° 60° (ENE) 12:14:53 437.445
ISS 26 Jun 12:13:12 12:16:28 62° 177° (S) 12:19:44 437.550
Gurwin Techsat 1B 26 Jun 12:19:34 12:22:35 16° 48° (NE) 12:25:37 435.225
PCSat 26 Jun 12:20:00 12:24:18 25° 111° (ESE) 12:28:39 145.827
EO-79 26 Jun 12:23:23 12:27:40 83° 257° (WSW) 12:31:59 145.935-145.965
Oscar 11 26 Jun 12:29:04 12:31:07 13° 307° (NW) 12:33:09 .
DUCHIFAT 1 26 Jun 12:36:16 12:40:30 75° 256° (WSW) 12:44:47 145.980
NANOSAT C BR1 26 Jun 12:45:26 12:49:37 56° 259° (W) 12:53:52 145.865
EO-88 26 Jun 12:49:52 12:52:41 21° 298° (WNW) 12:55:30 145.990 - 145.960
HO-68 26 Jun 12:50:49 12:53:42 13° 332° (NNW) 12:56:35 435.675
FO-29 26 Jun 12:51:55 12:53:52 11° 287° (WNW) 12:55:52 435.910
Oscar 19 26 Jun 12:55:43 13:00:19 34° 61° (ENE) 13:04:56 437.125/150
LO-87 26 Jun 13:08:37 13:12:15 68° 287° (WNW) 13:15:52 145.935 - 145.965
VELOX 1 26 Jun 13:16:19 13:19:55 24° 92° (E) 13:23:32 145.980
ESTCUBE 1 26 Jun 13:18:43 13:23:14 81° 106° (ESE) 13:27:42 437.505/2401.250
Tancredo 1 26 Jun 13:19:00 13:21:54 41° 197° (SSW) 13:24:49 437.200
AIST 2D 26 Jun 13:21:58 13:22:57 11° 274° (W) 13:23:57 435.315
POLYITAN 1 26 Jun 13:25:09 13:28:38 24° 268° (W) 13:32:09 437.675
AO-7 26 Jun 13:26:39 13:33:10 26° 38° (NE) 13:39:41 .
SPROUT 26 Jun 13:29:39 13:33:35 33° 96° (E) 13:37:30 437.525
DX 1 26 Jun 13:33:41 13:35:51 13° 87° (E) 13:38:01 434.975-435.025
QB50P2 26 Jun 13:36:44 13:39:42 18° 271° (W) 13:42:42 145.880/145.840
ITAMSAT 1 26 Jun 13:38:41 13:40:43 12° 44° (NE) 13:42:46 435.822/435.867
BUGSAT 1 26 Jun 13:42:32 13:46:34 49° 260° (W) 13:50:42 437.445
UKube-1 26 Jun 13:48:50 13:50:52 13° 87° (E) 13:52:54 .
ISS 26 Jun 13:49:35 13:52:46 45° 196° (SSW) 13:55:56 437.550
Gurwin Techsat 1B 26 Jun 13:56:22 14:01:37 64° 69° (ENE) 14:06:54 435.225
PCSat 26 Jun 14:01:46 14:07:12 78° 312° (NW) 14:12:41 145.827
EO-79 26 Jun 14:02:30 14:04:09 12° 275° (W) 14:05:48 145.935-145.965
SO-50 26 Jun 14:10:25 14:12:19 12° 110° (ESE) 14:14:14 436.795
DUCHIFAT 1 26 Jun 14:15:55 14:16:57 11° 276° (W) 14:17:59 145.980
50 SAT 26 Jun 14:20:29 14:23:47 45° 100° (E) 14:27:04 437.505
Oscar 19 26 Jun 14:34:35 14:39:32 47° 261° (W) 14:44:31 437.125/150
VELOX 1 26 Jun 14:52:21 14:56:39 52° 292° (WNW) 15:00:58 145.980
Tancredo 1 26 Jun 14:55:18 14:56:57 14° 216° (SW) 14:58:35 437.200
ESTCUBE 1 26 Jun 14:56:28 14:59:30 18° 304° (NW) 15:02:32 437.505/2401.250
SPROUT 26 Jun 15:05:35 15:09:31 35° 295° (WNW) 15:13:26 437.525
DX 1 26 Jun 15:08:18 15:12:42 89° 125° (SE) 15:17:05 434.975-435.025
ITAMSAT 1 26 Jun 15:14:04 15:19:04 49° 65° (ENE) 15:24:07 435.822/435.867
AO-7 26 Jun 15:16:27 15:24:42 71° 62° (ENE) 15:33:02 .
UKube-1 26 Jun 15:23:13 15:27:34 88° 109° (ESE) 15:31:54 .
ISS 26 Jun 15:26:36 15:28:43 16° 215° (SW) 15:30:49 437.550
ITUPSAT 1 26 Jun 15:29:44 15:32:40 16° 87° (E) 15:35:34 437.325
Gurwin Techsat 1B 26 Jun 15:37:40 15:42:01 25° 269° (W) 15:46:23 435.225
BEESAT 26 Jun 15:38:39 15:42:04 19° 89° (E) 15:45:27 436.000
PCSat 26 Jun 15:46:46 15:51:25 28° 335° (NNW) 15:56:06 145.827
SO-50 26 Jun 15:47:28 15:51:58 66° 130° (SE) 15:56:28 436.795
50 SAT 26 Jun 15:53:53 15:56:19 18° 299° (WNW) 15:58:45 437.505
HO-68 26 Jun 16:20:47 16:22:52 11° 25° (NNE) 16:24:57 435.675
CUTE-I 26 Jun 16:29:13 16:31:21 12° 44° (NE) 16:33:28 437.470
VELOX 1 26 Jun 16:31:23 16:32:10 10° 312° (NW) 16:32:58 145.980
MOZHAYETS 4 26 Jun 16:36:16 16:40:38 40° 97° (E) 16:44:56
DX 1 26 Jun 16:45:36 16:48:19 16° 306° (NW) 16:51:02 434.975-435.025
LilacSat-2 26 Jun 16:52:36 16:53:20 10° 53° (NE) 16:54:03 437.200
ITAMSAT 1 26 Jun 16:54:06 16:58:45 32° 265° (W) 17:03:27 435.822/435.867
UKube-1 26 Jun 17:00:20 17:03:02 16° 306° (NW) 17:05:43 .
XW-2C 26 Jun 17:06:14 17:08:03 13° 56° (NE) 17:09:53 145.795 - 145.815
ITUPSAT 1 26 Jun 17:06:19 17:11:11 87° 287° (WNW) 17:15:58 437.325
AO-7 26 Jun 17:10:35 17:18:06 37° 265° (W) 17:25:43 .
BEESAT 26 Jun 17:15:35 17:20:23 73° 289° (WNW) 17:25:08 436.000
KAITUO 1B 26 Jun 17:17:27 17:19:16 13° 56° (ENE) 17:21:06 145.475/437.950
CUBESAT XI-V 26 Jun 17:20:32 17:24:21 25° 92° (E) 17:28:08 437.345
SO-50 26 Jun 17:28:36 17:32:45 34° 332° (NNW) 17:36:55 436.795
PCSat 26 Jun 17:32:38 17:36:34 20° 1° (N) 17:40:30 145.827
DOVE 4 26 Jun 17:41:58 17:46:04 52° 69° (ENE) 17:50:22 437.250
NUDT-PHONESAT 26 Jun 17:49:57 17:53:00 24° 63° (ENE) 17:56:04 437.300
KKS-1 26 Jun 18:01:26 18:05:38 37° 98° (E) 18:09:49 437.445
HO-68 26 Jun 18:02:24 18:08:25 30° 50° (NE) 18:14:26 435.675
CUTE-I 26 Jun 18:05:08 18:10:14 48° 65° (ENE) 18:15:24 437.470
CUTE 1.7 + AOD 2 26 Jun 18:06:12 18:07:55 12° 53° (NE) 18:09:40 437.475
XW-2F 26 Jun 18:08:37 18:12:15 43° 69° (ENE) 18:15:53 145.980 - 146.000
XW-2D 26 Jun 18:13:22 18:17:05 51° 71° (ENE) 18:20:49 145.860 - 145.880
MOZHAYETS 4 26 Jun 18:13:36 18:17:44 33° 297° (WNW) 18:21:49
XW-2B 26 Jun 18:22:19 18:26:07 61° 71° (ENE) 18:29:55 145.730 - 145.750
LilacSat-2 26 Jun 18:23:02 18:26:52 66° 73° (ENE) 18:30:43 437.200
STARS 26 Jun 18:27:50 18:31:50 32° 96° (E) 18:35:48 437.465
CUBEBUG 2 26 Jun 18:29:22 18:31:46 14° 51° (NE) 18:34:11 437.445
XW-2C 26 Jun 18:37:49 18:41:41 88° 75° (ENE) 18:45:33 145.795 - 145.815
ITUPSAT 1 26 Jun 18:45:11 18:48:23 18° 307° (NW) 18:51:32 437.325
KAITUO 1B 26 Jun 18:48:56 18:52:44 88° 255° (WSW) 18:56:32 145.475/437.950
BEESAT 26 Jun 18:54:39 18:57:23 15° 309° (NW) 19:00:07 436.000
CUBESAT XI-V 26 Jun 18:57:31 19:02:00 51° 292° (WNW) 19:06:27 437.345
UWE-3 26 Jun 18:59:55 19:02:44 16° 54° (NE) 19:05:34 435.000/436.395/437.385
SO-50 26 Jun 19:10:58 19:14:24 21° 356° (N) 19:17:49 436.795
PCSat 26 Jun 19:16:56 19:21:41 29° 26° (NNE) 19:26:24 145.827
SEEDS 26 Jun 19:19:26 19:23:10 32° 65° (ENE) 19:26:56 437.485
DOVE 4 26 Jun 19:20:51 19:24:08 22° 270° (W) 19:27:33 437.250
NUDT-PHONESAT 26 Jun 19:23:11 19:26:45 39° 262° (W) 19:30:19 437.300
KKS-1 26 Jun 19:38:07 19:42:10 34° 297° (WNW) 19:46:12 437.445
CUTE 1.7 + AOD 2 26 Jun 19:38:48 19:43:01 69° 73° (ENE) 19:47:15 437.475
XW-2F 26 Jun 19:43:32 19:46:34 22° 268° (W) 19:49:36 145.980 - 146.000
CUTE-I 26 Jun 19:45:40 19:50:29 34° 265° (W) 19:55:21 437.470
HO-68 26 Jun 19:48:16 19:55:30 85° 252° (WSW) 20:02:46 435.675
XW-2D 26 Jun 19:48:47 19:51:34 19° 269° (W) 19:54:20 145.860 - 145.880
AO-73 26 Jun 19:51:16 19:54:50 23° 59° (ENE) 19:58:25 145.935
XW-2A 26 Jun 19:52:46 19:56:13 72° 72° (ENE) 19:59:40 145.665 - 145.685
XW-2B 26 Jun 19:58:14 20:00:42 16° 271° (W) 20:03:09 145.730 - 145.750
LilacSat-2 26 Jun 19:59:16 20:01:34 15° 271° (W) 20:03:53 437.200
STRAND 1 26 Jun 20:02:09 20:06:09 22° 90° (E) 20:10:07 437.568
CUBEBUG 2 26 Jun 20:02:54 20:07:32 67° 72° (ENE) 20:12:16 437.445
STARS 26 Jun 20:04:07 20:08:16 39° 295° (WNW) 20:12:23 437.465
AAUSAT CUBESAT 2 26 Jun 20:06:16 20:10:11 45° 68° (ENE) 20:14:08 437.432
XW-2C 26 Jun 20:15:10 20:16:28 11° 274° (W) 20:17:45 145.795 - 145.815
Oscar 11 26 Jun 20:16:40 20:20:22 28° 62° (ENE) 20:24:05 .
ZACube-1 26 Jun 20:26:05 20:30:26 45° 67° (ENE) 20:34:50 437.345
KAITUO 1B 26 Jun 20:26:28 20:27:21 11° 274° (W) 20:28:13 145.475/437.950
UWE-3 26 Jun 20:33:50 20:38:29 81° 74° (ENE) 20:43:12 435.000/436.395/437.385
CUBESAT XI-V 26 Jun 20:37:21 20:38:23 11° 312° (NW) 20:39:26 437.345
YUBILEINY 26 Jun 20:41:06 20:45:45 16° 67° (ENE) 20:50:25 435.215
RS-15 26 Jun 20:42:54 20:53:02 33° 104° (ESE) 21:03:15 29.354- 29.394
SO-50 26 Jun 20:52:19 20:56:11 27° 20° (NNE) 21:00:02 436.795
SEEDS 26 Jun 20:55:00 20:58:51 34° 264° (W) 21:02:43 437.485
PCSat 26 Jun 21:00:21 21:05:50 83° 48° (NE) 21:11:17 145.827
